Starlink 35117

operational
NORAD ID: 65632 Int'l Des: 2025-210 Owner: SPXS Country: US Constellation: starlink
NOTLE

关于 Starlink 35117

正在加载描述...

实时位置

正在加载3D地球...

即将过境

高度历史

Altitude vs Time

uPlot chart will show altitude changes over time

两行轨道根数

1 65632U 25210L 25340.39982486 .00057477 00000-0 19345-2 0 9999
2 65632 53.1596 20.7132 0001148 82.5380 277.5751 15.30255431 13443
Epoch: Dec 6, 2025 • Age: 27 hours

当前状态

高度 480.1 km
速度 7.63 km/s
星下点 51.80°N, 142.54°W
发射日期 Sep 18, 2025
运行时间 0.2 years
类型 internet

技术详情

分类 Payload
质量 575.00 kg
干质量 530.00 kg
总质量 575.00 kg
长度 0.30 m
直径 4.10 m
跨度 29.00 m
形状 Box + pan
制造商 SPXS
平台类型 Starlink V2MO
阶段状态 In Orbit
所有者/国家 SPXS/US

大型星座

Loading constellations...